[[{"header":{"parameterUnit":"m.s-1","parameterCategory":1,"la1":30.2991,"la2":30.254,"lo1":-89.0895,"lo2":-89.0444,"dy":0.0017,"dx":0.0017,"nx":28,"ny":28,"refTime":"2024-06-20T21:00:00:Z","depth":0,"parameterNumber":2,"parameterNumberName":"U-component_of_WINDS"},"data":[0,0,0,0,0,0,0,0,0,0,0,0,0,0,0,0,0,0,0,0,0,0,0,0,0,0,0,0,0,0,0,0,0,0,0,0,0,0,0,0,0,0,0,0,0,0,0,0,0,0,0,0,0,0,0,0,0,0,-0.2908,-0.2908,0,-0.2868,-0.2868,-0.2867,-0.2825,-0.2824,-0.2823,-0.2823,-0.2782,-0.2782,-0.2781,0,0,0,0,0,0,0,0,0,0,0,0,0,-0.2948,-0.2947,-0.2908,-0.2908,-0.2907,-0.2868,-0.2868,-0.2867,-0.2825,-0.2824,-0.2823,-0.2823,-0.2783,-0.2782,-0.2781,0,0,0,0,0,0,0,0,0,0,0,0,0,-0.2922,-0.2947,-0.2908,-0.2881,-0.2878,-0.2868,-0.2868,-0.2867,-0.2825,-0.2824,-0.2823,-0.2822,-0.2783,-0.2782,-0.2781,-0.2795,0,0,-0.2779,-0.2779,0,0,0,0,0,0,0,0,-0.2923,-0.292,-0.2886,-0.2883,-0.288,-0.285,-0.2867,-0.2843,-0.2825,-0.2845,-0.2823,-0.2822,-0.2806,-0.2803,-0.2798,-0.2793,-0.2791,-0.2779,-0.2778,-0.2778,-0.2778,0,0,0,0,0,0,0,-0.2925,-0.2922,-0.2892,-0.2885,-0.2882,-0.2871,-0.2867,-0.2862,-0.2831,-0.2843,-0.284,-0.2836,-0.2804,-0.2798,-0.2796,-0.279,-0.2779,-0.2778,-0.2778,-0.2777,-0.2794,-0.2795,0,0,0,0,0,0,-0.2931,-0.2923,-0.2894,-0.2891,-0.29,-0.2871,-0.2866,-0.2861,-0.2831,-0.2826,-0.2837,-0.2834,-0.28,-0.2797,-0.2795,-0.2808,-0.2778,-0.2777,-0.2777,-0.2793,-0.2794,-0.2795,0,0,0,0,0,0,-0.2932,-0.2929,-0.2895,-0.2906,-0.2901,-0.2872,-0.2866,-0.2861,-0.2855,-0.2826,-0.282,-0.2837,-0.2799,-0.2796,-0.2795,-0.2806,-0.2777,-0.2776,-0.2792,-0.2794,-0.2795,-0.2836,0,0,0,0,0,0,-0.2933,-0.2929,-0.2934,-0.2907,-0.2901,-0.2896,-0.2867,-0.286,-0.2854,-0.285,-0.2825,-0.282,-0.2798,-0.2796,-0.2794,-0.2805,-0.2776,-0.2791,-0.2793,-0.2794,-0.2833,-0.2839,-0.2843,0,0,0,0,0,-0.2935,-0.2947,-0.2935,-0.2931,-0.2906,-0.2897,-0.2894,-0.2869,-0.2855,-0.2859,-0.2841,-0.282,-0.2805,-0.2797,-0.2794,-0.2804,-0.279,-0.2792,-0.2794,-0.2831,-0.2838,-0.2843,0,0,0,0,0,0,-0.2977,-0.2943,-0.2929,-0.2933,-0.2918,-0.289,-0.2895,-0.2876,-0.2865,-0.2862,-0.2832,-0.2827,-0.2829,-0.2817,-0.2807,-0.2816,-0.2795,-0.2796,-0.2824,-0.283,-0.2834,-0.2838,-0.2775,0,0,0,0,0,-0.2987,-0.2982,-0.2953,-0.2959,-0.2953,-0.2925,-0.292,-0.2902,-0.2886,-0.288,-0.2861,-0.2846,-0.2837,-0.2833,-0.2824,-0.2831,-0.2825,-0.2837,-0.2842,-0.2846,-0.2848,-0.2851,-0.2856,-0.2802,-0.2802,-0.2802,0,0,-0.3007,-0.2988,-0.2987,-0.2967,-0.2954,-0.295,-0.292,-0.2917,-0.2914,-0.2879,-0.2877,-0.2863,-0.2844,-0.2847,-0.2848,-0.2837,-0.2861,-0.2848,-0.2852,-0.2851,-0.2853,-0.2858,-0.2863,-0.2803,-0.2803,-0.2803,0,0,-0.3042,-0.3027,-0.3031,-0.3018,-0.2997,-0.2979,-0.298,-0.2954,-0.2943,-0.2941,-0.2915,-0.291,-0.2896,-0.2884,-0.2876,-0.2905,-0.2886,-0.2903,-0.2928,-0.2931,-0.2936,-0.2939,-0.295,-0.2954,-0.2905,-0.2905,-0.2905,0,-0.307,-0.3063,-0.3035,-0.3034,-0.3026,-0.2994,-0.2997,-0.2986,-0.2964,-0.2959,-0.2947,-0.2929,-0.2914,-0.2914,-0.2921,-0.2915,-0.2916,-0.2906,-0.2937,-0.2941,-0.2943,-0.2953,-0.2957,-0.2907,-0.2907,-0.2907,-0.2907,0,-0.3098,-0.3093,-0.3099,-0.3078,-0.307,-0.3071,-0.3044,-0.304,-0.3023,-0.3005,-0.3003,-0.2984,-0.297,-0.2968,-0.2952,-0.2966,-0.296,-0.2943,-0.2921,-0.2951,-0.296,-0.2964,-0.2911,-0.291,-0.2909,-0.2909,0,0,-0.316,-0.3123,-0.3126,-0.3116,-0.309,-0.3086,-0.3085,-0.3072,-0.3069,-0.3054,-0.3053,-0.3042,-0.3026,-0.3017,-0.2998,-0.3001,-0.3025,-0.2983,-0.2982,-0.2992,-0.304,-0.3054,-0.3058,-0.3012,-0.3013,-0.3013,-0.3042,0,-0.3191,-0.3188,-0.3163,-0.3167,-0.3162,-0.3131,-0.313,-0.3115,-0.3098,-0.3092,-0.3073,-0.3066,-0.3046,-0.304,-0.3041,-0.3022,-0.3035,-0.302,-0.3011,-0.3011,-0.3017,-0.3063,-0.3077,-0.3105,-0.3045,-0.3046,-0.3046,0,-0.3227,-0.3214,-0.3218,-0.3192,-0.3189,-0.3189,-0.3174,-0.3168,-0.315,-0.3137,-0.3127,-0.3106,-0.3103,-0.3082,-0.3078,-0.3069,-0.3064,-0.3054,-0.3054,-0.3053,-0.3031,-0.3063,-0.3113,-0.3118,-0.3051,-0.3051,-0.305,0,-0.3272,-0.3256,-0.3256,-0.3248,-0.3218,-0.3219,-0.3206,-0.3186,-0.318,-0.3167,-0.3162,-0.3149,-0.3142,-0.3132,-0.3108,-0.3095,-0.3107,-0.3084,-0.3097,-0.3098,-0.3101,-0.3102,-0.3152,-0.3097,-0.3097,-0.3097,-0.3097,0,-0.331,-0.3314,-0.3276,-0.3276,-0.3279,-0.3249,-0.3253,-0.3237,-0.322,-0.3217,-0.3189,-0.3186,-0.3154,-0.3147,-0.3128,-0.3128,-0.3125,-0.3115,-0.311,-0.3118,-0.3119,-0.3115,-0.3112,-0.3098,-0.3098,-0.3098,-0.3097,0,-0.3362,-0.3336,-0.3334,-0.3305,-0.3298,-0.3302,-0.3277,-0.3276,-0.3257,-0.3253,-0.325,-0.3221,-0.3212,-0.3187,-0.3171,-0.3158,-0.3164,-0.3154,-0.317,-0.3167,-0.3181,-0.318,-0.3231,-0.3236,-0.3178,-0.3178,-0.3179,0,-0.3388,-0.339,-0.3361,-0.3356,-0.3345,-0.3338,-0.333,-0.3301,-0.3295,-0.3274,-0.3275,-0.3264,-0.3253,-0.324,-0.3218,-0.3205,-0.3196,-0.3214,-0.3194,-0.3201,-0.3196,-0.3197,-0.3197,-0.3219,-0.3219,-0.322,-0.3221,0,-0.3437,-0.3424,-0.3415,-0.3401,-0.3393,-0.338,-0.3366,-0.3364,-0.3332,-0.3326,-0.3316,-0.3308,-0.3291,-0.328,-0.3265,-0.3251,-0.3231,-0.3227,-0.3229,-0.3238,-0.3247,-0.3243,-0.3183,-0.3226,-0.3226,-0.3225,-0.3225,-0.3225,-0.3477,-0.3477,-0.3457,-0.3447,-0.3433,-0.342,-0.3418,-0.3399,-0.339,-0.3374,-0.3357,-0.3349,-0.333,-0.3307,-0.3295,-0.3288,-0.3277,-0.3281,-0.3282,-0.3283,-0.3287,-0.3248,-0.3285,-0.3285,-0.3285,-0.3285,-0.3284,0,-0.3525,-0.351,-0.3501,-0.3482,-0.3475,-0.3455,-0.3438,-0.3433,-0.3426,-0.341,-0.34,-0.3388,-0.3377,-0.3354,-0.3341,-0.334,-0.333,-0.3337,-0.3337,-0.3335,-0.3297,-0.3297,-0.3345,-0.3345,-0.3345,-0.3345,-0.3345,-0.3345,-0.355,-0.3549,-0.3533,-0.3525,-0.351,-0.3502,-0.3494,-0.3482,-0.3469,-0.3457,-0.3448,-0.3432,-0.3413,-0.3398,-0.3387,-0.338,-0.3377,-0.3387,-0.3378,-0.3343,-0.3337,-0.3332,-0.3331,-0.3387,-0.3387,-0.3416,-0.3416,-0.3416]},{"header":{"parameterUnit":"m.s-1","parameterCategory":1,"la1":30.2991,"la2":30.254,"lo1":-89.0895,"lo2":-89.0444,"dy":0.0017,"dx":0.0017,"nx":28,"ny":28,"refTime":"2024-06-20T21:00:00:Z","depth":0,"parameterNumber":3,"parameterNumberName":"V-component_of_WINDS"},"data":[0,0,0,0,0,0,0,0,0,0,0,0,0,0,0,0,0,0,0,0,0,0,0,0,0,0,0,0,0,0,0,0,0,0,0,0,0,0,0,0,0,0,0,0,0,0,0,0,0,0,0,0,0,0,0,0,0,0,1.8225,1.8225,0,1.8203,1.8202,1.8202,1.8155,1.8154,1.8153,1.8152,1.8129,1.8129,1.8129,0,0,0,0,0,0,0,0,0,0,0,0,0,1.8227,1.8227,1.8225,1.8225,1.8225,1.8203,1.8202,1.8202,1.8155,1.8154,1.8153,1.8151,1.8129,1.8129,1.8129,0,0,0,0,0,0,0,0,0,0,0,0,0,1.8218,1.8227,1.8225,1.8199,1.8196,1.8203,1.8202,1.8202,1.8155,1.8154,1.8152,1.8151,1.8128,1.8129,1.8129,1.816,0,0,1.813,1.8131,0,0,0,0,0,0,0,0,1.8218,1.8218,1.8203,1.82,1.8197,1.818,1.8194,1.8188,1.8155,1.8171,1.8152,1.815,1.8147,1.8146,1.8145,1.8159,1.8158,1.813,1.8131,1.8131,1.8131,0,0,0,0,0,0,0,1.8219,1.8218,1.8216,1.8203,1.8199,1.8187,1.8184,1.8193,1.8167,1.8169,1.8166,1.8164,1.8145,1.8144,1.8144,1.8158,1.813,1.8131,1.8131,1.8131,1.8195,1.8196,0,0,0,0,0,0,1.8223,1.8219,1.8217,1.8216,1.8205,1.8189,1.8185,1.8187,1.8167,1.8162,1.8165,1.8162,1.8144,1.8143,1.8143,1.8176,1.8131,1.8131,1.8131,1.8193,1.8195,1.8197,0,0,0,0,0,0,1.8224,1.8224,1.8218,1.8216,1.8215,1.819,1.8192,1.8187,1.8186,1.8164,1.8159,1.8169,1.8143,1.8142,1.8156,1.8175,1.8131,1.8132,1.8192,1.8194,1.8196,1.8245,0,0,0,0,0,0,1.8224,1.8224,1.8236,1.8217,1.8215,1.8232,1.8194,1.8188,1.8187,1.8183,1.8166,1.8162,1.8142,1.8155,1.8156,1.8175,1.8132,1.819,1.8193,1.8195,1.8242,1.8249,1.8255,0,0,0,0,0,1.8224,1.8251,1.8237,1.8237,1.8229,1.8233,1.8232,1.8209,1.8189,1.82,1.8185,1.8162,1.8173,1.8157,1.8158,1.8177,1.8189,1.8192,1.8195,1.8239,1.8247,1.8255,0,0,0,0,0,0,1.8273,1.8248,1.8232,1.8253,1.8246,1.8225,1.8239,1.8219,1.8216,1.8212,1.8183,1.818,1.8197,1.8188,1.8171,1.8205,1.8177,1.818,1.821,1.8218,1.8224,1.8226,1.8132,0,0,0,0,0,1.8286,1.8292,1.8269,1.829,1.8287,1.8264,1.8265,1.8247,1.8238,1.8235,1.8221,1.8213,1.8214,1.8216,1.8216,1.824,1.8235,1.8253,1.826,1.8265,1.8269,1.828,1.8287,1.8208,1.8208,1.8207,0,0,1.8314,1.8301,1.8306,1.83,1.8292,1.8298,1.8261,1.827,1.8273,1.8236,1.8248,1.8237,1.8226,1.8245,1.8253,1.8238,1.8289,1.827,1.8274,1.8274,1.8284,1.8291,1.8298,1.821,1.8209,1.8209,0,0,1.8366,1.8358,1.8373,1.8366,1.8354,1.8338,1.8342,1.8324,1.8316,1.8327,1.8299,1.8303,1.8306,1.8299,1.8296,1.8345,1.8323,1.8346,1.838,1.8391,1.8397,1.8403,1.8419,1.8425,1.8349,1.8349,1.8349,0,1.8402,1.841,1.8384,1.8394,1.8391,1.8358,1.8373,1.8367,1.8356,1.8355,1.8339,1.8341,1.8332,1.8348,1.836,1.8359,1.8362,1.8347,1.8398,1.8404,1.8408,1.8424,1.843,1.8352,1.8352,1.8352,1.8351,0,1.8454,1.8459,1.8474,1.8463,1.8463,1.8475,1.8451,1.8454,1.8436,1.8422,1.8433,1.842,1.8416,1.8419,1.8402,1.8433,1.8424,1.8404,1.8375,1.8419,1.8433,1.8439,1.8356,1.8355,1.8354,1.8354,0,0,1.8537,1.8511,1.8517,1.8511,1.8495,1.8499,1.851,1.8506,1.8508,1.8502,1.8509,1.8512,1.8493,1.8489,1.8471,1.8481,1.852,1.8459,1.8459,1.847,1.8551,1.8566,1.8573,1.8505,1.8506,1.8507,1.8551,0,1.8585,1.8602,1.8579,1.8601,1.8605,1.8572,1.8581,1.8572,1.8559,1.8561,1.8546,1.8548,1.8523,1.852,1.8529,1.8513,1.8535,1.851,1.8511,1.8512,1.8514,1.858,1.8597,1.8639,1.8557,1.8558,1.8558,0,1.8644,1.864,1.8662,1.8643,1.8644,1.8653,1.8647,1.8649,1.8638,1.8627,1.8623,1.8601,1.861,1.8582,1.8593,1.8576,1.8575,1.8568,1.8569,1.8567,1.8537,1.858,1.8652,1.8658,1.8567,1.8566,1.8566,0,1.8701,1.8701,1.8714,1.871,1.8689,1.8696,1.8688,1.8675,1.8674,1.8668,1.8667,1.8663,1.8661,1.8658,1.8635,1.8618,1.8648,1.8619,1.8639,1.864,1.8647,1.8646,1.8719,1.8648,1.8648,1.8647,1.8647,0,1.8757,1.8772,1.8739,1.8747,1.8762,1.8735,1.8751,1.8739,1.8728,1.8732,1.8704,1.8709,1.8679,1.8681,1.8663,1.8674,1.8673,1.8664,1.8659,1.8667,1.8668,1.8665,1.8661,1.8649,1.8649,1.8648,1.8648,0,1.8824,1.8803,1.8814,1.8793,1.8788,1.88,1.8782,1.8788,1.8773,1.8779,1.8779,1.8754,1.8754,1.8732,1.8727,1.8715,1.8733,1.8723,1.8737,1.8734,1.8754,1.8752,1.8827,1.8835,1.876,1.8761,1.8761,0,1.8861,1.8871,1.8851,1.8852,1.8845,1.8847,1.8845,1.8819,1.8819,1.8806,1.8813,1.8811,1.8808,1.8809,1.8791,1.8787,1.8776,1.8803,1.8775,1.8782,1.8775,1.8775,1.8775,1.8808,1.8809,1.881,1.8811,0,1.8928,1.8917,1.8916,1.8911,1.891,1.8905,1.8898,1.89,1.8871,1.8872,1.8871,1.8869,1.8864,1.8861,1.8854,1.8845,1.8823,1.8819,1.8824,1.8831,1.8838,1.8833,1.8752,1.8818,1.8817,1.8817,1.8816,1.8816,1.8981,1.8988,1.8975,1.8974,1.8966,1.896,1.8964,1.8949,1.8948,1.8942,1.8926,1.8928,1.8915,1.8903,1.8896,1.8896,1.8883,1.8889,1.8891,1.8893,1.8896,1.8838,1.8895,1.8895,1.8894,1.8894,1.8894,0,1.9046,1.9036,1.9035,1.9026,1.9025,1.9005,1.8996,1.8996,1.8998,1.8988,1.8985,1.8984,1.8982,1.8963,1.8958,1.8962,1.8952,1.8962,1.8961,1.8959,1.8909,1.8905,1.897,1.897,1.897,1.897,1.897,1.897,1.908,1.9091,1.9078,1.9084,1.9073,1.9075,1.9071,1.9065,1.9057,1.9057,1.9054,1.9042,1.9028,1.9022,1.9018,1.9013,1.9012,1.9025,1.9016,1.897,1.8962,1.8955,1.8952,1.9025,1.9025,1.9065,1.9066,1.9066]}]]